This is the latest recevied weather packets stored in our database for station/object SV7RNH. If no packets are shown the sender has not sent any weather packets the latest 10 day(s).
| Time | Temp. | Humidity | Pressure | Rain* | Wind** | Luminosity | Snow |
|---|---|---|---|---|---|---|---|
| 1777889703 | 22.78° C | 10% | 1020.2 hPa | 0 mm | - | - | - |
| 1777889403 | 22.78° C | 10% | 1020.3 hPa | 0 mm | - | - | - |
| 1777889104 | 22.22° C | 10% | 1020.2 hPa | 0 mm | - | - | - |
| 1777888804 | 22.22° C | 10% | 1020.3 hPa | 0 mm | - | - | - |
| 1777888503 | 22.78° C | 10% | 1020.3 hPa | 0 mm | - | - | - |
| 1777888203 | 22.78° C | 10% | 1020.5 hPa | 0 mm | - | - | - |
| 1777887904 | 22.22° C | 10% | 1020.7 hPa | 0 mm | - | - | - |
| 1777887604 | 22.22° C | 10% | 1020.7 hPa | 0 mm | - | - | - |
| 1777887303 | 22.22° C | 11% | 1020.9 hPa | 0 mm | - | - | - |
| 1777887004 | 21.67° C | 11% | 1020.9 hPa | 0 mm | - | - | - |
| 1777886703 | 21.67° C | 12% | 1020.9 hPa | 0 mm | - | - | - |
| 1777886403 | 21.67° C | 12% | 1021 hPa | 0 mm | - | - | - |
| 1777886104 | 22.22° C | 10% | 1021.1 hPa | 0 mm | - | - | - |
| 1777885804 | 21.67° C | 13% | 1021.2 hPa | 0 mm | - | - | - |
| 1777885504 | 21.11° C | 12% | 1021.2 hPa | 0 mm | - | - | - |
| 1777885203 | 21.11° C | 13% | 1021.2 hPa | 0 mm | - | - | - |
| 1777884904 | 20.56° C | 15% | 1021.4 hPa | 0 mm | - | - | - |
| 1777884604 | 20° C | 14% | 1021.3 hPa | 0 mm | - | - | - |
| 1777884303 | 20° C | 15% | 1021.4 hPa | 0 mm | - | - | - |
| 1777884004 | 19.44° C | 14% | 1021.4 hPa | 0 mm | - | - | - |
| 1777883703 | 18.89° C | 14% | 1021.4 hPa | 0 mm | - | - | - |
| 1777883403 | 18.89° C | 15% | 1021.5 hPa | 0 mm | - | - | - |
| 1777883104 | 18.89° C | 14% | 1021.5 hPa | 0 mm | - | - | - |
| 1777882803 | 18.89° C | 14% | 1021.4 hPa | 0 mm | - | - | - |
| 1777882503 | 18.89° C | 13% | 1021.4 hPa | 0 mm | - | - | - |
* Rain latest hour (hover to see other rain measurements)
** Current wind speed in m/s (hover to see current wind gust speed)